Flag for Germany Weather past 2 weeks in Monheim am Rhein, North Rhine-Westphalia, Germany

45 °F


Feels Like: 38 °F
Forecast: 40 / 45 °F
Wind: 15 mph from South

Location: Duesseldorf

Current Time: Nov 27, 2015 at 2:49:37 PM

Latest Report: Nov 27, 2015 at 2:20 PM

Visibility: 10 mi

Pressure: 29.98 "Hg

Humidity: 71%

Dew point: 36 °F

Location of Monheim am RheinLocation

Historic Weather in Monheim am Rhein — Graph


Monheim am Rhein temperature yesterday

Maximum temperature yesterday: 48 °F (at 2:50 PM)
Minimum temperature yesterday: 34 °F (at 8:20 AM)
Average temperature yesterday: 39 °F

Past Weeks' High & Low Weather Summary

High61 °F (Nov 15, 11:50 AM)100% (Nov 14, 10:50 PM)30.30 "Hg (Nov 14, 10:50 PM)
Low32 °F (Nov 22, 7:20 AM)59% (Nov 18, 3:20 AM)29.39 "Hg (Nov 21, 7:20 AM)
Average47 °F83%29.91 "Hg
* Reported Nov 12 1:20 PM — Nov 27 1:20 PM, Monheim am Rhein, Weather by CustomWeather, © 2015

Note: Actual official high and low records may vary slightly from our data, if they occured in-between our weather recording intervals... More about our weather records


Monheim am Rhein weather history for previous 24 hours

Time TempWeatherWind HumidityBarometerVisibility
1:20 PM
Fri, Nov 27
43 °FSunny.12 mph76%30.01 "Hg10 mi
12:50 PM43 °FPassing clouds.10 mph76%30.01 "HgN/A
12:20 PM41 °FPassing clouds.13 mph81%30.04 "HgN/A
11:50 AM39 °FPassing clouds.12 mph87%30.07 "Hg6 mi
11:20 AM39 °FPassing clouds.10 mph87%30.07 "Hg5 mi
10:50 AM37 °FScattered clouds.10 mph93%30.07 "Hg4 mi
10:20 AM36 °FFog.12 mph100%30.07 "Hg2 mi
9:50 AM36 °FFog.12 mph93%30.09 "Hg2 mi
9:20 AM34 °FFog.10 mph100%30.09 "Hg1 mi
8:50 AM34 °FFog.9 mph100%30.09 "Hg1 mi
7:50 AM32 °FIce fog.12 mph100%30.09 "Hg1 mi
7:20 AM34 °FFog.13 mph100%30.09 "Hg1 mi
6:50 AM34 °FFog.10 mph100%30.09 "Hg1 mi
6:20 AM34 °FFog.9 mph100%30.09 "Hg1 mi
5:50 AM34 °FPassing clouds.14 mph100%30.12 "Hg4 mi
5:20 AM34 °FPassing clouds.13 mph100%30.12 "Hg4 mi
4:50 AM34 °FClear.14 mph100%30.12 "Hg5 mi
4:20 AM34 °FClear.12 mph100%30.12 "Hg5 mi
3:50 AM34 °FClear.9 mph100%30.15 "Hg5 mi
3:20 AM34 °FClear.6 mph100%30.15 "Hg6 mi
2:50 AM36 °FClear.9 mph93%30.15 "Hg6 mi
2:20 AM36 °FClear.12 mph93%30.15 "Hg6 mi
1:50 AM36 °FClear.12 mph93%30.15 "Hg6 mi
1:20 AM36 °FClear.10 mph93%30.15 "Hg6 mi
12:50 AM36 °FClear.8 mph93%30.18 "Hg10 mi
12:20 AM36 °FClear.9 mph93%30.15 "Hg10 mi
11:50 PM
Thu, Nov 26
34 °FClear.9 mph100%30.18 "Hg10 mi
11:20 PM36 °FClear.7 mph93%30.18 "Hg10 mi
10:50 PM36 °FClear.8 mph93%30.15 "Hg10 mi
10:20 PM34 °FClear.7 mph100%30.18 "Hg10 mi
9:50 PM36 °FClear.8 mph93%30.18 "Hg10 mi
9:20 PM36 °FPassing clouds.5 mph100%30.18 "HgN/A
8:50 PM36 °FClear.3 mph93%30.18 "Hg10 mi
8:20 PM36 °FClear.2 mph100%30.15 "Hg10 mi
7:50 PM37 °FClear.2 mph93%30.15 "Hg10 mi
7:20 PM37 °FPassing clouds.3 mph93%30.15 "HgN/A
6:50 PM37 °FPassing clouds.No wind93%30.15 "HgN/A
6:20 PM37 °FPassing clouds.No wind93%30.12 "HgN/A
5:50 PM39 °FPassing clouds.No wind93%30.12 "HgN/A
5:20 PM39 °FPassing clouds.3 mph93%30.12 "HgN/A
4:50 PM43 °FPassing clouds.5 mph81%30.09 "HgN/A
4:20 PM45 °FPassing clouds.5 mph81%30.09 "HgN/A
3:50 PM46 °FPassing clouds.5 mph71%30.09 "HgN/A
3:20 PM48 °FScattered clouds.5 mph66%30.09 "HgN/A
2:50 PM48 °FScattered clouds.5 mph71%30.07 "HgN/A
2:20 PM46 °FScattered clouds.5 mph76%30.07 "HgN/A
Weather by CustomWeather, © 2015

See weather overviewHow to use our weather pages